Time,TemperatureF,DewpointF,PressureIn,WindDirection,WindDirectionDegrees,WindSpeedMPH,WindSpeedGustMPH,Humidity,HourlyPrecipIn,Conditions,Clouds,dailyrainin,SoftwareType,DateUTC
2013-03-28 00:02:00,51.1,41.3,31.01,NNW,331,0.0,0.0,69,0.00,,---,0.00,VWS V14.00,2013-03-28 07:02:00,
2013-03-28 00:07:00,51.1,41.3,31.01,NNW,331,0.0,0.0,69,0.00,,---,0.00,VWS V14.00,2013-03-28 07:07:00,
2013-03-28 00:12:00,50.9,41.1,31.01,NNW,331,0.0,0.0,69,0.00,,---,0.00,VWS V14.00,2013-03-28 07:12:00,
2013-03-28 00:17:00,50.9,41.1,31.01,NNW,331,0.0,0.0,69,0.00,,---,0.00,VWS V14.00,2013-03-28 07:17:00,
2013-03-28 00:22:00,50.7,40.9,31.01,NNW,342,0.0,0.0,69,0.00,,---,0.00,VWS V14.00,2013-03-28 07:22:00,
2013-03-28 00:27:00,50.7,40.9,31.01,NNW,342,0.0,0.0,69,0.00,,---,0.00,VWS V14.00,2013-03-28 07:27:00,
2013-03-28 00:32:00,50.5,40.8,31.01,NNW,342,0.0,0.0,69,0.00,,---,0.00,VWS V14.00,2013-03-28 07:32:00,
2013-03-28 00:37:00,50.5,40.8,31.01,NNW,342,0.0,0.0,69,0.00,,---,0.00,VWS V14.00,2013-03-28 07:37:00,
2013-03-28 00:42:00,50.5,40.8,31.01,NNW,342,0.0,0.0,69,0.00,,---,0.00,VWS V14.00,2013-03-28 07:42:00,
2013-03-28 00:47:00,50.5,40.8,31.01,NNW,342,0.0,0.0,69,0.00,,---,0.00,VWS V14.00,2013-03-28 07:47:00,
2013-03-28 00:52:00,50.5,40.8,31.01,NNW,342,0.0,0.0,69,0.00,,---,0.00,VWS V14.00,2013-03-28 07:52:00,
2013-03-28 00:57:00,50.4,40.6,31.01,NNW,342,0.0,0.0,69,0.00,,---,0.00,VWS V14.00,2013-03-28 07:57:00,
2013-03-28 01:02:00,50.4,40.6,31.01,NNW,342,0.0,0.0,69,0.00,,---,0.00,VWS V14.00,2013-03-28 08:02:00,
2013-03-28 01:07:00,50.4,41.0,31.01,NNW,342,0.0,0.0,70,0.00,,---,0.00,VWS V14.00,2013-03-28 08:07:00,
2013-03-28 01:12:00,50.2,40.8,31.01,NNW,342,0.0,0.0,70,0.00,,---,0.00,VWS V14.00,2013-03-28 08:12:00,
2013-03-28 01:17:00,50.2,40.8,31.01,NNW,342,0.0,0.0,70,0.00,,---,0.00,VWS V14.00,2013-03-28 08:17:00,
2013-03-28 01:22:00,50.2,40.8,31.01,NNW,342,0.0,0.0,70,0.00,,---,0.00,VWS V14.00,2013-03-28 08:22:00,
2013-03-28 01:27:00,50.2,40.8,31.01,NNW,342,0.0,0.0,70,0.00,,---,0.00,VWS V14.00,2013-03-28 08:27:00,
2013-03-28 01:33:00,50.2,40.8,31.01,NNW,342,0.0,0.0,70,0.00,,---,0.00,VWS V14.00,2013-03-28 08:33:00,
2013-03-28 01:38:00,50.0,40.6,31.01,NNW,342,0.0,0.0,70,0.00,,---,0.00,VWS V14.00,2013-03-28 08:38:00,
2013-03-28 01:43:00,50.0,40.6,31.01,NNW,342,0.0,0.0,70,0.00,,---,0.00,VWS V14.00,2013-03-28 08:43:00,
2013-03-28 01:48:00,50.0,40.6,31.01,NNW,342,0.0,0.0,70,0.00,,---,0.00,VWS V14.00,2013-03-28 08:48:00,
2013-03-28 01:53:00,50.0,40.6,31.01,NNW,342,0.0,0.0,70,0.00,,---,0.00,VWS V14.00,2013-03-28 08:53:00,
2013-03-28 01:58:00,49.8,40.8,31.01,NNW,342,0.0,0.0,71,0.00,,---,0.00,VWS V14.00,2013-03-28 08:58:00,
2013-03-28 02:03:00,49.8,40.8,31.01,NNW,342,0.0,0.0,71,0.00,,---,0.00,VWS V14.00,2013-03-28 09:03:00,
2013-03-28 02:08:00,50.0,41.0,31.01,NNW,342,0.0,0.0,71,0.00,,---,0.00,VWS V14.00,2013-03-28 09:08:00,
2013-03-28 02:13:00,50.0,41.0,31.01,NNW,342,0.0,0.0,71,0.00,,---,0.00,VWS V14.00,2013-03-28 09:13:00,
2013-03-28 02:18:00,50.0,41.0,31.01,NNW,342,0.0,0.0,71,0.00,,---,0.00,VWS V14.00,2013-03-28 09:18:00,
2013-03-28 02:23:00,50.0,41.0,31.01,NNW,342,0.0,0.0,71,0.00,,---,0.00,VWS V14.00,2013-03-28 09:23:00,
2013-03-28 02:28:00,50.0,41.0,31.01,NNW,342,0.0,0.0,71,0.00,,---,0.00,VWS V14.00,2013-03-28 09:28:00,
2013-03-28 02:33:00,50.0,41.0,31.01,NNW,342,0.0,0.0,71,0.00,,---,0.00,VWS V14.00,2013-03-28 09:33:00,
2013-03-28 02:38:00,49.8,40.8,31.01,NNW,342,0.0,0.0,71,0.00,,---,0.00,VWS V14.00,2013-03-28 09:38:00,
2013-03-28 02:43:00,49.8,40.8,31.01,NNW,342,0.0,0.0,71,0.00,,---,0.00,VWS V14.00,2013-03-28 09:43:00,
2013-03-28 02:48:00,49.8,40.8,31.01,NNW,342,0.0,0.0,71,0.00,,---,0.00,VWS V14.00,2013-03-28 09:48:00,
2013-03-28 02:53:00,49.8,41.2,31.01,NNW,342,0.0,0.0,72,0.00,,---,0.00,VWS V14.00,2013-03-28 09:53:00,
2013-03-28 02:58:00,49.8,41.2,31.01,NNW,342,0.0,0.0,72,0.00,,---,0.00,VWS V14.00,2013-03-28 09:58:00,
2013-03-28 03:03:00,49.8,41.2,31.01,NNW,342,0.0,0.0,72,0.00,,---,0.00,VWS V14.00,2013-03-28 10:03:00,
2013-03-28 03:08:00,49.6,41.0,31.01,NNW,342,0.0,0.0,72,0.00,,---,0.00,VWS V14.00,2013-03-28 10:08:00,
2013-03-28 03:13:00,49.5,40.8,31.01,NNW,342,0.0,0.0,72,0.00,,---,0.00,VWS V14.00,2013-03-28 10:13:00,
2013-03-28 03:18:00,49.5,40.8,31.01,NNW,342,0.0,0.0,72,0.00,,---,0.00,VWS V14.00,2013-03-28 10:18:00,
2013-03-28 03:23:00,49.5,40.8,31.01,NNW,342,0.0,0.0,72,0.00,,---,0.00,VWS V14.00,2013-03-28 10:23:00,
2013-03-28 03:28:00,49.5,40.8,31.01,NNW,342,0.0,0.0,72,0.00,,---,0.00,VWS V14.00,2013-03-28 10:28:00,
2013-03-28 03:33:00,49.5,40.8,31.01,NNW,342,0.0,0.0,72,0.00,,---,0.00,VWS V14.00,2013-03-28 10:33:00,
2013-03-28 03:38:00,49.5,40.8,31.01,NNW,342,0.0,0.0,72,0.00,,---,0.00,VWS V14.00,2013-03-28 10:38:00,
2013-03-28 03:43:00,49.5,40.8,31.01,NNW,342,0.0,0.0,72,0.00,,---,0.00,VWS V14.00,2013-03-28 10:43:00,
2013-03-28 03:48:00,49.6,41.0,31.01,NNW,342,0.0,0.0,72,0.00,,---,0.00,VWS V14.00,2013-03-28 10:48:00,
2013-03-28 03:53:00,49.6,41.0,31.01,NNW,342,0.0,0.0,72,0.00,,---,0.00,VWS V14.00,2013-03-28 10:53:00,
2013-03-28 03:58:00,49.6,41.0,31.01,NNW,342,0.0,0.0,72,0.00,,---,0.00,VWS V14.00,2013-03-28 10:58:00,
2013-03-28 04:03:00,49.6,41.0,31.01,NNW,342,0.0,0.0,72,0.00,,---,0.00,VWS V14.00,2013-03-28 11:03:00,
2013-03-28 04:08:00,49.6,41.3,31.01,NNW,342,0.0,0.0,73,0.00,,---,0.00,VWS V14.00,2013-03-28 11:08:00,
2013-03-28 04:13:00,49.6,41.3,31.01,NNW,342,0.0,0.0,73,0.00,,---,0.00,VWS V14.00,2013-03-28 11:13:00,
2013-03-28 04:18:00,49.6,41.3,31.01,NNW,342,0.0,0.0,73,0.00,,---,0.00,VWS V14.00,2013-03-28 11:18:00,
2013-03-28 04:23:00,49.6,41.3,31.01,NNW,342,0.0,0.0,73,0.00,,---,0.00,VWS V14.00,2013-03-28 11:23:00,
2013-03-28 04:29:00,49.6,41.3,31.01,NNW,342,0.0,0.0,73,0.00,,---,0.00,VWS V14.00,2013-03-28 11:29:00,
2013-03-28 04:34:00,49.6,41.3,31.01,NNW,342,0.0,0.0,73,0.00,,---,0.00,VWS V14.00,2013-03-28 11:34:00,
2013-03-28 04:39:00,49.6,41.3,31.01,NNW,342,0.0,0.0,73,0.00,,---,0.00,VWS V14.00,2013-03-28 11:39:00,
2013-03-28 04:44:00,49.6,41.3,31.01,NNW,342,0.0,0.0,73,0.00,,---,0.00,VWS V14.00,2013-03-28 11:44:00,
2013-03-28 04:49:00,49.5,41.2,31.01,NNW,342,0.0,0.0,73,0.00,,---,0.00,VWS V14.00,2013-03-28 11:49:00,
2013-03-28 04:54:00,49.3,41.0,31.01,NNW,342,0.0,0.0,73,0.00,,---,0.00,VWS V14.00,2013-03-28 11:54:00,
2013-03-28 04:59:00,49.3,41.0,31.01,NNW,342,0.0,0.0,73,0.00,,---,0.00,VWS V14.00,2013-03-28 11:59:00,
2013-03-28 05:04:00,49.1,40.8,31.01,NNW,342,0.0,0.0,73,0.00,,---,0.00,VWS V14.00,2013-03-28 12:04:00,
2013-03-28 05:09:00,49.1,40.8,31.01,NNW,342,0.0,0.0,73,0.00,,---,0.00,VWS V14.00,2013-03-28 12:09:00,
2013-03-28 05:14:00,49.1,40.8,31.01,NNW,342,0.0,0.0,73,0.00,,---,0.00,VWS V14.00,2013-03-28 12:14:00,
2013-03-28 05:19:00,48.9,40.7,31.01,NNW,342,0.0,0.0,73,0.00,,---,0.00,VWS V14.00,2013-03-28 12:19:00,
2013-03-28 05:24:00,48.9,41.0,31.01,NNW,342,0.0,0.0,74,0.00,,---,0.00,VWS V14.00,2013-03-28 12:24:00,
2013-03-28 05:29:00,48.7,40.8,31.01,NNW,342,0.0,0.0,74,0.00,,---,0.00,VWS V14.00,2013-03-28 12:29:00,
2013-03-28 05:34:00,48.7,40.8,31.01,NNW,342,0.0,0.0,74,0.00,,---,0.00,VWS V14.00,2013-03-28 12:34:00,
2013-03-28 05:39:00,48.7,40.8,31.01,NNW,342,0.0,0.0,74,0.00,,---,0.00,VWS V14.00,2013-03-28 12:39:00,
2013-03-28 05:44:00,48.7,40.8,31.01,NNW,342,0.0,0.0,74,0.00,,---,0.00,VWS V14.00,2013-03-28 12:44:00,
2013-03-28 05:49:00,48.9,41.0,31.01,NNW,342,0.0,0.0,74,0.00,,---,0.00,VWS V14.00,2013-03-28 12:49:00,
2013-03-28 05:54:00,48.9,41.0,31.01,NNW,342,0.0,0.0,74,0.00,,---,0.00,VWS V14.00,2013-03-28 12:54:00,
2013-03-28 05:59:00,48.9,41.0,31.01,NNW,342,0.0,0.0,74,0.00,,---,0.00,VWS V14.00,2013-03-28 12:59:00,
2013-03-28 06:04:00,48.7,40.8,31.01,NNW,342,0.0,0.0,74,0.00,,---,0.00,VWS V14.00,2013-03-28 13:04:00,
2013-03-28 06:09:00,48.7,41.2,31.01,NNW,342,0.0,0.0,75,0.00,,---,0.00,VWS V14.00,2013-03-28 13:09:00,
2013-03-28 06:14:00,48.7,41.2,31.01,NNW,342,0.0,0.0,75,0.00,,---,0.00,VWS V14.00,2013-03-28 13:14:00,
2013-03-28 06:19:00,48.7,41.2,31.01,NNW,331,0.0,0.0,75,0.00,,---,0.00,VWS V14.00,2013-03-28 13:19:00,
2013-03-28 06:24:00,48.7,41.2,31.01,NNW,331,0.0,0.0,75,0.00,,---,0.00,VWS V14.00,2013-03-28 13:24:00,
2013-03-28 06:29:00,48.7,41.2,31.01,NNW,331,0.0,0.0,75,0.00,,---,0.00,VWS V14.00,2013-03-28 13:29:00,
2013-03-28 06:34:00,48.9,41.7,31.01,NNW,331,0.0,0.0,76,0.00,,---,0.00,VWS V14.00,2013-03-28 13:34:00,
2013-03-28 06:39:00,49.1,41.9,31.01,NNW,331,0.0,0.0,76,0.00,,---,0.00,VWS V14.00,2013-03-28 13:39:00,
2013-03-28 06:44:00,49.3,42.0,31.01,NNW,331,0.0,0.0,76,0.00,,---,0.00,VWS V14.00,2013-03-28 13:44:00,
2013-03-28 06:49:00,49.5,42.2,31.01,NNW,331,0.0,0.0,76,0.00,,---,0.00,VWS V14.00,2013-03-28 13:49:00,
2013-03-28 06:54:00,49.5,42.2,31.01,NNW,331,0.0,0.0,76,0.00,,---,0.00,VWS V14.00,2013-03-28 13:54:00,
2013-03-28 06:59:00,49.6,42.4,31.01,NNW,331,0.0,0.0,76,0.00,,---,0.00,VWS V14.00,2013-03-28 13:59:00,
2013-03-28 07:04:00,49.8,42.6,31.01,NNW,331,0.0,0.0,76,0.00,,---,0.00,VWS V14.00,2013-03-28 14:04:00,
2013-03-28 07:09:00,49.8,42.6,31.01,NNW,331,0.0,0.0,76,0.00,,---,0.00,VWS V14.00,2013-03-28 14:09:00,
2013-03-28 07:14:00,50.0,42.4,31.01,NNW,331,0.0,0.0,75,0.00,,---,0.00,VWS V14.00,2013-03-28 14:14:00,
2013-03-28 07:19:00,50.0,42.4,31.01,NNW,331,0.0,0.0,75,0.00,,---,0.00,VWS V14.00,2013-03-28 14:19:00,
2013-03-28 07:24:00,50.0,42.4,31.01,NNW,331,0.0,0.0,75,0.00,,---,0.00,VWS V14.00,2013-03-28 14:24:00,
2013-03-28 07:29:00,50.0,42.4,31.01,NNW,343,0.0,0.0,75,0.00,,---,0.00,VWS V14.00,2013-03-28 14:29:00,
2013-03-28 07:34:00,50.0,42.4,31.01,NNW,343,0.0,0.0,75,0.00,,---,0.00,VWS V14.00,2013-03-28 14:34:00,
2013-03-28 07:39:00,49.8,42.2,31.01,NNW,343,0.0,0.0,75,0.00,,---,0.00,VWS V14.00,2013-03-28 14:39:00,
2013-03-28 07:44:00,49.8,42.2,31.01,NNW,343,0.0,0.0,75,0.00,,---,0.00,VWS V14.00,2013-03-28 14:44:00,
2013-03-28 07:49:00,49.8,42.6,31.01,NNW,343,0.0,0.0,76,0.00,,---,0.00,VWS V14.00,2013-03-28 14:49:00,
2013-03-28 07:54:00,49.8,42.6,31.01,NNW,343,0.0,0.0,76,0.00,,---,0.00,VWS V14.00,2013-03-28 14:54:00,
2013-03-28 07:59:00,49.8,42.6,31.01,NNW,343,0.0,0.0,76,0.00,,---,0.00,VWS V14.00,2013-03-28 14:59:00,
2013-03-28 08:04:00,49.8,42.6,31.01,NNW,343,0.0,0.0,76,0.00,,---,0.00,VWS V14.00,2013-03-28 15:04:00,
2013-03-28 08:09:00,50.0,42.4,31.01,NNW,343,0.0,0.0,75,0.00,,---,0.00,VWS V14.00,2013-03-28 15:09:00,
2013-03-28 08:14:00,50.0,42.4,31.01,NNW,343,0.0,0.0,75,0.00,,---,0.00,VWS V14.00,2013-03-28 15:14:00,
2013-03-28 08:20:00,50.2,42.9,31.01,NNW,343,0.0,0.0,76,0.00,,---,0.00,VWS V14.00,2013-03-28 15:20:00,
2013-03-28 08:25:00,50.2,42.9,31.01,NNW,343,0.0,0.0,76,0.00,,---,0.00,VWS V14.00,2013-03-28 15:25:00,
2013-03-28 08:30:00,50.4,43.1,31.01,NNW,343,0.0,0.0,76,0.00,,---,0.00,VWS V14.00,2013-03-28 15:30:00,
2013-03-28 08:35:00,50.5,43.3,31.01,NNW,343,0.0,0.0,76,0.00,,---,0.00,VWS V14.00,2013-03-28 15:35:00,
2013-03-28 08:40:00,50.5,43.3,31.01,NNW,343,0.0,0.0,76,0.00,,---,0.00,VWS V14.00,2013-03-28 15:40:00,
2013-03-28 08:45:00,50.5,43.3,31.01,NNW,343,0.0,0.0,76,0.00,,---,0.00,VWS V14.00,2013-03-28 15:45:00,
2013-03-28 08:50:00,50.5,43.3,31.01,NNW,343,0.0,0.0,76,0.00,,---,0.00,VWS V14.00,2013-03-28 15:50:00,
2013-03-28 08:55:00,50.7,43.4,31.01,NNW,343,0.0,0.0,76,0.00,,---,0.00,VWS V14.00,2013-03-28 15:55:00,
2013-03-28 09:00:00,50.7,43.4,31.01,NNW,343,0.0,0.0,76,0.00,,---,0.00,VWS V14.00,2013-03-28 16:00:00,
2013-03-28 09:05:00,50.7,43.4,31.01,NNW,343,0.0,0.0,76,0.00,,---,0.00,VWS V14.00,2013-03-28 16:05:00,
2013-03-28 09:10:00,50.9,43.6,31.01,NNW,343,0.0,0.0,76,0.00,,---,0.00,VWS V14.00,2013-03-28 16:10:00,
2013-03-28 09:15:00,50.9,43.6,31.01,NNW,343,0.0,0.0,76,0.00,,---,0.00,VWS V14.00,2013-03-28 16:15:00,
2013-03-28 09:20:00,51.1,43.8,31.01,NNW,343,0.0,0.0,76,0.00,,---,0.00,VWS V14.00,2013-03-28 16:20:00,
2013-03-28 09:25:00,51.3,44.0,31.01,NNW,343,0.0,0.0,76,0.00,,---,0.00,VWS V14.00,2013-03-28 16:25:00,
2013-03-28 09:30:00,51.3,44.0,31.01,NNW,343,0.0,0.0,76,0.00,,---,0.00,VWS V14.00,2013-03-28 16:30:00,
2013-03-28 09:35:00,51.4,44.1,31.01,NNW,343,0.0,0.0,76,0.00,,---,0.00,VWS V14.00,2013-03-28 16:35:00,
2013-03-28 09:40:00,51.4,44.1,31.01,NNW,343,0.0,0.0,76,0.00,,---,0.00,VWS V14.00,2013-03-28 16:40:00,
2013-03-28 09:45:00,51.6,44.3,31.01,NNW,343,0.0,0.0,76,0.00,,---,0.00,VWS V14.00,2013-03-28 16:45:00,
2013-03-28 09:50:00,51.6,44.3,31.01,NNW,343,0.0,0.0,76,0.00,,---,0.00,VWS V14.00,2013-03-28 16:50:00,
2013-03-28 09:55:00,51.8,44.1,31.01,NNW,343,0.0,0.0,75,0.00,,---,0.00,VWS V14.00,2013-03-28 16:55:00,
2013-03-28 10:00:00,52.0,44.3,31.01,NNW,343,0.0,0.0,75,0.00,,---,0.00,VWS V14.00,2013-03-28 17:00:00,
2013-03-28 10:05:00,52.2,44.5,31.01,NNW,343,0.0,0.0,75,0.00,,---,0.00,VWS V14.00,2013-03-28 17:05:00,
2013-03-28 10:10:00,52.3,44.7,31.01,NNW,343,0.0,0.0,75,0.00,,---,0.00,VWS V14.00,2013-03-28 17:10:00,
2013-03-28 10:15:00,52.5,44.8,31.01,NNW,343,0.0,0.0,75,0.00,,---,0.00,VWS V14.00,2013-03-28 17:15:00,
2013-03-28 10:20:00,52.7,45.0,31.01,NNW,343,0.0,0.0,75,0.00,,---,0.00,VWS V14.00,2013-03-28 17:20:00,
2013-03-28 10:25:00,53.1,45.4,31.01,NNW,343,0.0,0.0,75,0.00,,---,0.00,VWS V14.00,2013-03-28 17:25:00,
2013-03-28 10:30:00,53.2,45.5,31.01,NNW,343,0.0,0.0,75,0.00,,---,0.00,VWS V14.00,2013-03-28 17:30:00,
2013-03-28 10:35:00,53.6,45.5,31.01,NNW,343,0.0,0.0,74,0.00,,---,0.00,VWS V14.00,2013-03-28 17:35:00,
2013-03-28 10:40:00,54.0,45.9,31.01,NNW,343,0.0,0.0,74,0.00,,---,0.00,VWS V14.00,2013-03-28 17:40:00,
2013-03-28 10:45:00,54.1,46.0,31.01,NNW,343,0.0,0.0,74,0.00,,---,0.00,VWS V14.00,2013-03-28 17:45:00,
2013-03-28 10:50:00,54.5,46.4,31.01,NNW,343,0.0,0.0,74,0.00,,---,0.04,VWS V14.00,2013-03-28 17:50:00,
2013-03-28 10:55:00,54.7,46.6,31.01,NNW,343,0.0,0.0,74,0.00,,---,0.04,VWS V14.00,2013-03-28 17:55:00,
2013-03-28 11:00:00,55.0,46.9,31.01,NNW,343,0.0,0.0,74,0.00,,---,0.04,VWS V14.00,2013-03-28 18:00:00,
2013-03-28 11:05:00,55.6,47.1,31.01,ESE,106,0.0,0.0,73,0.00,,---,0.04,VWS V14.00,2013-03-28 18:05:00,
2013-03-28 11:10:00,55.9,46.7,31.01,ESE,116,0.0,0.0,71,0.00,,---,0.04,VWS V14.00,2013-03-28 18:10:00,
2013-03-28 11:15:00,56.1,46.5,31.01,SSE,164,0.0,0.0,70,0.00,,---,0.04,VWS V14.00,2013-03-28 18:15:00,
2013-03-28 11:20:00,56.3,46.7,31.01,SE,128,0.0,0.0,70,0.00,,---,0.04,VWS V14.00,2013-03-28 18:20:00,
2013-03-28 11:25:00,56.5,46.8,31.01,South,178,0.0,0.0,70,0.00,,---,0.04,VWS V14.00,2013-03-28 18:25:00,
2013-03-28 11:30:00,57.0,47.3,31.01,SSE,155,0.0,0.0,70,0.00,,---,0.04,VWS V14.00,2013-03-28 18:30:00,
2013-03-28 11:35:00,57.4,47.3,31.01,SSW,206,0.0,0.0,69,0.00,,---,0.04,VWS V14.00,2013-03-28 18:35:00,
2013-03-28 11:40:00,57.6,47.5,31.01,SW,215,0.0,0.0,69,0.00,,---,0.04,VWS V14.00,2013-03-28 18:40:00,
2013-03-28 11:45:00,58.3,48.2,31.01,SSE,156,0.0,0.0,69,0.00,,---,0.04,VWS V14.00,2013-03-28 18:45:00,
2013-03-28 11:50:00,58.6,47.7,31.01,SSE,167,0.0,0.0,67,0.00,,---,0.04,VWS V14.00,2013-03-28 18:50:00,
2013-03-28 11:55:00,58.8,47.5,31.01,SW,236,0.0,0.0,66,0.00,,---,0.04,VWS V14.00,2013-03-28 18:55:00,
2013-03-28 12:00:00,59.0,47.7,31.01,SSW,193,0.0,0.0,66,0.00,,---,0.04,VWS V14.00,2013-03-28 19:00:00,
2013-03-28 12:05:00,59.7,48.0,31.01,SE,133,0.0,0.0,65,0.00,,---,0.04,VWS V14.00,2013-03-28 19:05:00,
2013-03-28 12:10:00,59.9,45.5,31.01,South,176,0.0,0.0,59,0.00,,---,0.04,VWS V14.00,2013-03-28 19:10:00,
2013-03-28 12:15:00,60.6,46.2,31.01,ESE,111,0.0,0.0,59,0.00,,---,0.04,VWS V14.00,2013-03-28 19:15:00,
2013-03-28 12:20:00,60.8,46.0,31.01,South,169,0.0,0.0,58,0.00,,---,0.04,VWS V14.00,2013-03-28 19:20:00,
2013-03-28 12:25:00,60.4,44.7,31.01,SSE,159,0.0,0.0,56,0.00,,---,0.04,VWS V14.00,2013-03-28 19:25:00,
2013-03-28 12:30:00,60.1,43.9,31.01,SSE,159,0.0,0.0,55,0.00,,---,0.04,VWS V14.00,2013-03-28 19:30:00,
2013-03-28 12:35:00,59.9,43.7,31.01,SSE,155,0.0,0.0,55,0.00,,---,0.04,VWS V14.00,2013-03-28 19:35:00,
2013-03-28 12:40:00,59.7,43.5,31.01,SSE,155,0.0,0.0,55,0.00,,---,0.04,VWS V14.00,2013-03-28 19:40:00,
2013-03-28 12:45:00,59.7,43.1,31.01,South,177,0.0,0.0,54,0.00,,---,0.04,VWS V14.00,2013-03-28 19:45:00,
2013-03-28 12:50:00,60.3,43.6,31.01,SSE,162,0.0,0.0,54,0.00,,---,0.04,VWS V14.00,2013-03-28 19:50:00,
2013-03-28 12:55:00,61.0,42.7,31.01,WSW,252,0.0,0.0,51,0.00,,---,0.04,VWS V14.00,2013-03-28 19:55:00,
2013-03-28 13:00:00,61.9,43.6,31.01,West,275,0.0,0.0,51,0.00,,---,0.04,VWS V14.00,2013-03-28 20:00:00,
2013-03-28 13:05:00,63.5,45.6,31.01,SSE,157,0.0,0.0,52,0.00,,---,0.04,VWS V14.00,2013-03-28 20:05:00,
2013-03-28 13:10:00,64.0,45.0,31.01,ESE,123,0.0,0.0,50,0.00,,---,0.04,VWS V14.00,2013-03-28 20:10:00,
2013-03-28 13:15:00,63.3,42.8,31.01,SE,139,0.0,0.0,47,0.00,,---,0.04,VWS V14.00,2013-03-28 20:15:00,
2013-03-28 13:20:00,64.4,43.8,31.01,West,277,0.0,0.0,47,0.00,,---,0.04,VWS V14.00,2013-03-28 20:20:00,
2013-03-28 13:25:00,72.5,51.2,31.01,WSW,257,0.0,0.0,47,0.00,,---,0.04,VWS V14.00,2013-03-28 20:25:00,
2013-03-28 13:30:00,78.3,46.8,31.01,SSW,203,0.0,0.0,33,0.00,,---,0.04,VWS V14.00,2013-03-28 20:30:00,
2013-03-28 13:35:00,78.1,45.8,31.01,WSW,258,0.0,0.0,32,0.00,,---,0.04,VWS V14.00,2013-03-28 20:35:00,
2013-03-28 13:40:00,74.1,43.2,31.01,WSW,250,0.0,0.0,33,0.00,,---,0.04,VWS V14.00,2013-03-28 20:40:00,
2013-03-28 13:46:00,70.3,40.7,31.01,SSW,201,0.0,0.0,34,0.00,,---,0.04,VWS V14.00,2013-03-28 20:46:00,
2013-03-28 13:51:00,68.0,39.3,31.01,South,170,0.0,0.0,35,0.00,,---,0.04,VWS V14.00,2013-03-28 20:51:00,
2013-03-28 13:56:00,66.0,39.0,31.01,South,170,0.0,0.0,37,0.00,,---,0.04,VWS V14.00,2013-03-28 20:56:00,
2013-03-28 14:01:00,64.4,38.3,31.01,SSE,153,0.0,0.0,38,0.00,,---,0.04,VWS V14.00,2013-03-28 21:01:00,
2013-03-28 14:06:00,63.0,38.3,31.01,SSE,164,0.0,0.0,40,0.00,,---,0.04,VWS V14.00,2013-03-28 21:06:00,
2013-03-28 14:11:00,62.2,38.9,31.01,SSE,164,0.0,0.0,42,0.00,,---,0.04,VWS V14.00,2013-03-28 21:11:00,
2013-03-28 14:16:00,62.4,40.8,31.01,WSW,250,0.0,0.0,45,0.00,,---,0.04,VWS V14.00,2013-03-28 21:16:00,
2013-03-28 14:21:00,64.0,42.3,31.01,South,170,0.0,0.0,45,0.00,,---,0.04,VWS V14.00,2013-03-28 21:21:00,
2013-03-28 14:26:00,66.0,43.5,31.01,ESE,113,0.0,0.0,44,0.00,,---,0.04,VWS V14.00,2013-03-28 21:26:00,
2013-03-28 14:31:00,66.4,42.6,31.01,East,100,0.0,0.0,42,0.00,,---,0.04,VWS V14.00,2013-03-28 21:31:00,
2013-03-28 14:37:00,64.9,40.7,31.01,South,189,0.0,0.0,41,0.00,,---,0.04,VWS V14.00,2013-03-28 21:37:00,
2013-03-28 14:42:00,64.8,41.2,31.01,SE,136,0.0,0.0,42,0.00,,---,0.04,VWS V14.00,2013-03-28 21:42:00,
2013-03-28 14:47:00,64.9,41.3,31.01,SE,130,0.0,0.0,42,0.00,,---,0.04,VWS V14.00,2013-03-28 21:47:00,
2013-03-28 14:52:00,64.8,41.2,31.01,SW,225,0.0,0.0,42,0.00,,---,0.04,VWS V14.00,2013-03-28 21:52:00,
2013-03-28 14:57:00,64.9,41.9,31.01,WSW,253,0.0,0.0,43,0.00,,---,0.04,VWS V14.00,2013-03-28 21:57:00,
2013-03-28 15:02:00,66.4,42.6,31.01,WSW,254,2.7,3.1,42,0.00,,---,0.04,VWS V14.00,2013-03-28 22:02:00,
2013-03-28 15:07:00,66.6,40.9,31.01,SE,124,0.0,4.0,39,0.00,,---,0.04,VWS V14.00,2013-03-28 22:07:00,
2013-03-28 15:12:00,66.6,40.9,31.01,West,275,2.7,4.0,39,0.00,,---,0.04,VWS V14.00,2013-03-28 22:12:00,
2013-03-28 15:17:00,65.8,40.2,31.01,ESE,118,0.0,4.0,39,0.00,,---,0.04,VWS V14.00,2013-03-28 22:17:00,
2013-03-28 15:22:00,65.3,39.7,31.01,SSE,152,0.0,0.0,39,0.00,,---,0.04,VWS V14.00,2013-03-28 22:22:00,
2013-03-28 15:27:00,64.8,39.2,31.01,WSW,252,0.0,4.0,39,0.00,,---,0.04,VWS V14.00,2013-03-28 22:27:00,
2013-03-28 15:32:00,64.2,39.4,31.01,SW,221,0.0,4.0,40,0.00,,---,0.04,VWS V14.00,2013-03-28 22:32:00,
2013-03-28 15:37:00,63.5,38.8,31.01,SSE,154,0.0,4.0,40,0.00,,---,0.04,VWS V14.00,2013-03-28 22:37:00,
2013-03-28 15:42:00,63.0,38.9,31.01,SSW,199,0.0,2.7,41,0.00,,---,0.04,VWS V14.00,2013-03-28 22:42:00,
2013-03-28 15:47:00,62.6,38.6,31.01,SE,140,2.7,3.1,41,0.00,,---,0.04,VWS V14.00,2013-03-28 22:47:00,
2013-03-28 15:52:00,62.1,38.7,31.01,South,190,0.0,3.1,42,0.00,,---,0.04,VWS V14.00,2013-03-28 22:52:00,
2013-03-28 15:57:00,62.1,39.9,31.01,South,191,0.0,3.1,44,0.00,,---,0.04,VWS V14.00,2013-03-28 22:57:00,
2013-03-28 16:02:00,62.1,39.9,31.01,SSE,168,0.0,0.0,44,0.00,,---,0.04,VWS V14.00,2013-03-28 23:02:00,
2013-03-28 16:07:00,61.9,39.8,31.01,SSE,150,0.0,0.0,44,0.00,,---,0.04,VWS V14.00,2013-03-28 23:07:00,
2013-03-28 16:12:00,61.7,40.2,31.01,SE,124,0.0,0.0,45,0.00,,---,0.04,VWS V14.00,2013-03-28 23:12:00,
2013-03-28 16:17:00,61.9,40.3,31.01,ESE,112,0.0,0.0,45,0.00,,---,0.04,VWS V14.00,2013-03-28 23:17:00,
2013-03-28 16:22:00,61.9,39.8,31.01,East,87,0.0,0.0,44,0.00,,---,0.04,VWS V14.00,2013-03-28 23:22:00,
2013-03-28 16:27:00,61.7,39.6,31.01,SE,137,0.0,0.0,44,0.00,,---,0.04,VWS V14.00,2013-03-28 23:27:00,
2013-03-28 16:32:00,61.5,40.0,31.01,ESE,120,0.0,0.0,45,0.00,,---,0.04,VWS V14.00,2013-03-28 23:32:00,
2013-03-28 16:37:00,61.5,40.0,31.01,SE,144,0.0,0.0,45,0.00,,---,0.04,VWS V14.00,2013-03-28 23:37:00,
2013-03-28 16:43:00,61.0,38.9,31.01,ESE,105,0.0,2.2,44,0.00,,---,0.04,VWS V14.00,2013-03-28 23:43:00,
2013-03-28 16:48:00,60.6,39.2,31.01,East,101,0.0,2.2,45,0.00,,---,0.04,VWS V14.00,2013-03-28 23:48:00,
2013-03-28 16:53:00,60.6,39.2,31.01,SSE,157,0.0,2.2,45,0.00,,---,0.04,VWS V14.00,2013-03-28 23:53:00,
2013-03-28 16:58:00,60.6,39.2,28.61,East,100,0.0,2.2,45,0.00,,---,0.04,VWS V14.00,2013-03-28 23:58:00,
2013-03-28 17:03:00,60.8,39.9,28.61,South,180,0.0,0.0,46,0.00,,---,0.04,VWS V14.00,2013-03-29 00:03:00,
2013-03-28 17:08:00,60.8,39.3,28.20,ESE,102,0.0,0.0,45,0.00,,---,0.04,VWS V14.00,2013-03-29 00:08:00,
2013-03-28 17:13:00,61.0,39.5,28.20,SE,137,0.0,0.0,45,0.00,,---,0.04,VWS V14.00,2013-03-29 00:13:00,
2013-03-28 17:18:00,61.0,39.5,28.20,NE,41,0.0,2.2,45,0.00,,---,0.04,VWS V14.00,2013-03-29 00:18:00,
2013-03-28 17:23:00,61.0,38.9,26.19,SE,143,0.0,3.1,44,0.00,,---,0.04,VWS V14.00,2013-03-29 00:23:00,
2013-03-28 17:28:00,61.0,38.9,26.19,SSE,156,0.0,3.1,44,0.00,,---,0.04,VWS V14.00,2013-03-29 00:28:00,
2013-03-28 17:33:00,61.0,38.3,26.19,South,176,0.0,3.1,43,0.00,,---,0.04,VWS V14.00,2013-03-29 00:33:00,
2013-03-28 17:38:00,61.0,38.9,25.90,SE,145,0.0,3.1,44,0.00,,---,0.04,VWS V14.00,2013-03-29 00:38:00,
2013-03-28 17:43:00,60.8,38.8,25.90,ESE,104,0.0,0.0,44,0.00,,---,0.04,VWS V14.00,2013-03-29 00:43:00,
2013-03-28 17:48:00,60.4,39.0,25.90,East,98,0.0,2.2,45,0.00,,---,0.04,VWS V14.00,2013-03-29 00:48:00,
2013-03-28 17:53:00,60.4,39.0,25.90,East,98,0.0,2.2,45,0.00,,---,0.04,VWS V14.00,2013-03-29 00:53:00,
2013-03-28 17:58:00,60.4,39.0,24.01,East,97,0.0,2.2,45,0.00,,---,0.04,VWS V14.00,2013-03-29 00:58:00,
2013-03-28 18:03:00,60.4,39.6,24.01,East,98,0.0,0.0,46,0.00,,---,0.04,VWS V14.00,2013-03-29 01:03:00,
2013-03-28 18:08:00,60.4,39.6,25.90,East,98,0.0,0.0,46,0.00,,---,0.04,VWS V14.00,2013-03-29 01:08:00,
2013-03-28 18:13:00,60.4,39.6,25.90,East,98,0.0,0.0,46,0.00,,---,0.04,VWS V14.00,2013-03-29 01:13:00,
2013-03-28 18:18:00,60.3,39.4,25.90,ESE,111,0.0,0.0,46,0.00,,---,0.04,VWS V14.00,2013-03-29 01:18:00,
2013-03-28 18:23:00,60.3,39.4,27.73,South,175,0.0,0.0,46,0.00,,---,0.04,VWS V14.00,2013-03-29 01:23:00,
2013-03-28 18:28:00,60.3,39.4,27.73,South,171,0.0,2.2,46,0.00,,---,0.04,VWS V14.00,2013-03-29 01:28:00,
2013-03-28 18:33:00,60.3,38.8,27.73,South,182,0.0,2.2,45,0.00,,---,0.04,VWS V14.00,2013-03-29 01:33:00,
2013-03-28 18:38:00,60.1,38.7,27.73,South,172,0.0,2.2,45,0.00,,---,0.04,VWS V14.00,2013-03-29 01:38:00,
2013-03-28 18:43:00,59.9,38.5,27.73,SSE,165,0.0,0.0,45,0.00,,---,0.04,VWS V14.00,2013-03-29 01:43:00,
2013-03-28 18:48:00,59.9,38.5,27.73,SSE,165,0.0,0.0,45,0.00,,---,0.04,VWS V14.00,2013-03-29 01:48:00,
2013-03-28 18:53:00,59.9,38.5,27.73,SSE,165,0.0,0.0,45,0.00,,---,0.04,VWS V14.00,2013-03-29 01:53:00,
2013-03-28 18:58:00,59.7,38.4,27.73,SSE,165,0.0,0.0,45,0.00,,---,0.04,VWS V14.00,2013-03-29 01:58:00,
2013-03-28 19:03:00,59.5,38.2,27.73,SSE,165,0.0,0.0,45,0.00,,---,0.04,VWS V14.00,2013-03-29 02:03:00,
2013-03-28 19:08:00,59.4,38.0,27.73,SSE,165,0.0,0.0,45,0.00,,---,0.04,VWS V14.00,2013-03-29 02:08:00,
2013-03-28 19:13:00,59.4,38.6,27.73,SSE,165,0.0,0.0,46,0.00,,---,0.04,VWS V14.00,2013-03-29 02:13:00,
2013-03-28 19:18:00,59.2,38.4,27.73,SW,223,0.0,0.0,46,0.00,,---,0.04,VWS V14.00,2013-03-29 02:18:00,
2013-03-28 19:23:00,59.2,38.4,27.73,SW,223,0.0,0.0,46,0.00,,---,0.04,VWS V14.00,2013-03-29 02:23:00,
2013-03-28 19:28:00,59.0,38.3,29.62,SW,223,0.0,0.0,46,0.00,,---,0.04,VWS V14.00,2013-03-29 02:28:00,
2013-03-28 19:33:00,58.8,38.7,29.62,SW,223,0.0,0.0,47,0.00,,---,0.04,VWS V14.00,2013-03-29 02:33:00,
2013-03-28 19:39:00,58.8,39.2,27.73,SW,223,0.0,0.0,48,0.00,,---,0.04,VWS V14.00,2013-03-29 02:39:00,
2013-03-28 19:44:00,58.6,39.0,27.73,SW,223,0.0,0.0,48,0.00,,---,0.04,VWS V14.00,2013-03-29 02:44:00,
2013-03-28 19:49:00,58.5,39.4,27.73,SW,223,0.0,0.0,49,0.00,,---,0.04,VWS V14.00,2013-03-29 02:49:00,
2013-03-28 19:54:00,58.3,39.2,27.73,SW,223,0.0,0.0,49,0.00,,---,0.04,VWS V14.00,2013-03-29 02:54:00,
2013-03-28 19:59:00,58.1,39.6,27.73,SW,223,0.0,0.0,50,0.00,,---,0.04,VWS V14.00,2013-03-29 02:59:00,
2013-03-28 20:04:00,57.9,39.4,27.73,SW,223,0.0,0.0,50,0.00,,---,0.04,VWS V14.00,2013-03-29 03:04:00,
2013-03-28 20:09:00,57.7,39.8,27.73,SW,223,0.0,0.0,51,0.00,,---,0.04,VWS V14.00,2013-03-29 03:09:00,
2013-03-28 20:14:00,57.6,39.6,27.73,SW,223,0.0,0.0,51,0.00,,---,0.04,VWS V14.00,2013-03-29 03:14:00,
2013-03-28 20:19:00,57.6,39.6,27.73,SW,223,0.0,0.0,51,0.00,,---,0.04,VWS V14.00,2013-03-29 03:19:00,
2013-03-28 20:24:00,57.4,39.9,29.38,SW,223,0.0,0.0,52,0.00,,---,0.04,VWS V14.00,2013-03-29 03:24:00,
2013-03-28 20:29:00,57.2,39.8,29.38,SW,223,0.0,0.0,52,0.00,,---,0.04,VWS V14.00,2013-03-29 03:29:00,
2013-03-28 20:34:00,57.0,40.1,29.38,SW,223,0.0,0.0,53,0.00,,---,0.04,VWS V14.00,2013-03-29 03:34:00,
2013-03-28 20:39:00,56.8,39.9,31.01,SW,223,0.0,0.0,53,0.00,,---,0.04,VWS V14.00,2013-03-29 03:39:00,
2013-03-28 20:44:00,56.7,40.2,31.01,SW,223,0.0,0.0,54,0.00,,---,0.04,VWS V14.00,2013-03-29 03:44:00,
2013-03-28 20:49:00,56.5,40.0,31.01,SW,223,0.0,0.0,54,0.00,,---,0.04,VWS V14.00,2013-03-29 03:49:00,
2013-03-28 20:54:00,56.5,40.0,31.01,SW,223,0.0,0.0,54,0.00,,---,0.04,VWS V14.00,2013-03-29 03:54:00,
2013-03-28 20:59:00,56.3,40.4,31.01,SW,223,0.0,0.0,55,0.00,,---,0.04,VWS V14.00,2013-03-29 03:59:00,
2013-03-28 21:00:00,56.3,40.4,31.01,SW,223,0.0,0.0,55,0.00,,---,0.04,VWS V14.00,2013-03-29 04:00:00,
2013-03-28 21:05:00,56.1,40.2,31.01,SW,223,0.0,0.0,55,0.00,,---,0.04,VWS V14.00,2013-03-29 04:05:00,
2013-03-28 21:10:00,55.9,40.0,31.01,SW,223,0.0,0.0,55,0.00,,---,0.04,VWS V14.00,2013-03-29 04:10:00,
2013-03-28 21:15:00,55.8,40.3,31.01,SW,223,0.0,0.0,56,0.00,,---,0.04,VWS V14.00,2013-03-29 04:15:00,
2013-03-28 21:20:00,55.8,40.3,31.01,SW,223,0.0,0.0,56,0.00,,---,0.04,VWS V14.00,2013-03-29 04:20:00,
2013-03-28 21:25:00,55.8,40.3,31.01,SW,223,0.0,0.0,56,0.00,,---,0.04,VWS V14.00,2013-03-29 04:25:00,
2013-03-28 21:30:00,55.6,40.2,31.01,SW,223,0.0,0.0,56,0.00,,---,0.04,VWS V14.00,2013-03-29 04:30:00,
2013-03-28 21:35:00,55.6,40.6,31.01,SW,223,0.0,0.0,57,0.00,,---,0.04,VWS V14.00,2013-03-29 04:35:00,
2013-03-28 21:40:00,55.4,40.4,31.01,SW,223,0.0,0.0,57,0.00,,---,0.04,VWS V14.00,2013-03-29 04:40:00,
2013-03-28 21:45:00,55.4,40.4,31.01,SW,223,0.0,0.0,57,0.00,,---,0.04,VWS V14.00,2013-03-29 04:45:00,
2013-03-28 21:51:00,55.2,40.7,31.01,SW,223,0.0,0.0,58,0.00,,---,0.04,VWS V14.00,2013-03-29 04:51:00,
2013-03-28 21:56:00,55.2,40.7,31.01,SW,223,0.0,0.0,58,0.00,,---,0.04,VWS V14.00,2013-03-29 04:56:00,
2013-03-28 22:01:00,55.2,40.7,31.01,SW,223,0.0,0.0,58,0.00,,---,0.04,VWS V14.00,2013-03-29 05:01:00,
2013-03-28 22:06:00,55.0,40.5,31.01,SW,223,0.0,0.0,58,0.00,,---,0.04,VWS V14.00,2013-03-29 05:06:00,
2013-03-28 22:11:00,55.0,40.5,31.01,SW,223,0.0,0.0,58,0.00,,---,0.04,VWS V14.00,2013-03-29 05:11:00,
2013-03-28 22:16:00,54.9,40.4,31.01,SW,223,0.0,0.0,58,0.00,,---,0.04,VWS V14.00,2013-03-29 05:16:00,
2013-03-28 22:21:00,54.9,40.8,31.01,SW,223,0.0,0.0,59,0.00,,---,0.04,VWS V14.00,2013-03-29 05:21:00,
2013-03-28 22:26:00,54.9,40.8,31.01,SW,223,0.0,0.0,59,0.00,,---,0.04,VWS V14.00,2013-03-29 05:26:00,
2013-03-28 22:31:00,55.0,41.0,31.01,SW,223,0.0,0.0,59,0.00,,---,0.04,VWS V14.00,2013-03-29 05:31:00,
2013-03-28 22:36:00,54.9,40.8,31.01,SW,223,0.0,0.0,59,0.00,,---,0.04,VWS V14.00,2013-03-29 05:36:00,
2013-03-28 22:41:00,54.9,40.8,31.01,SW,223,0.0,0.0,59,0.00,,---,0.04,VWS V14.00,2013-03-29 05:41:00,
2013-03-28 22:46:00,54.9,40.8,31.01,SW,223,0.0,0.0,59,0.00,,---,0.04,VWS V14.00,2013-03-29 05:46:00,
2013-03-28 22:51:00,54.7,40.7,31.01,SW,223,0.0,0.0,59,0.00,,---,0.04,VWS V14.00,2013-03-29 05:51:00,
2013-03-28 22:56:00,54.7,40.7,31.01,SW,223,0.0,0.0,59,0.00,,---,0.04,VWS V14.00,2013-03-29 05:56:00,
2013-03-28 23:01:00,54.5,40.9,31.01,SW,223,0.0,0.0,60,0.00,,---,0.04,VWS V14.00,2013-03-29 06:01:00,
2013-03-28 23:06:00,54.5,40.9,31.01,SW,223,0.0,0.0,60,0.00,,---,0.04,VWS V14.00,2013-03-29 06:06:00,
2013-03-28 23:11:00,54.3,40.8,31.01,SW,223,0.0,0.0,60,0.00,,---,0.04,VWS V14.00,2013-03-29 06:11:00,
2013-03-28 23:16:00,54.3,40.8,31.01,SW,223,0.0,0.0,60,0.00,,---,0.04,VWS V14.00,2013-03-29 06:16:00,
2013-03-28 23:22:00,54.1,40.6,31.01,SW,223,0.0,0.0,60,0.00,,---,0.04,VWS V14.00,2013-03-29 06:22:00,
2013-03-28 23:27:00,54.1,41.0,31.01,SW,223,0.0,0.0,61,0.00,,---,0.04,VWS V14.00,2013-03-29 06:27:00,
2013-03-28 23:32:00,54.0,40.8,31.01,SW,223,0.0,0.0,61,0.00,,---,0.04,VWS V14.00,2013-03-29 06:32:00,
2013-03-28 23:37:00,53.8,40.7,31.01,SW,223,0.0,0.0,61,0.00,,---,0.04,VWS V14.00,2013-03-29 06:37:00,
2013-03-28 23:42:00,53.8,40.7,31.01,SW,223,0.0,0.0,61,0.00,,---,0.04,VWS V14.00,2013-03-29 06:42:00,
2013-03-28 23:47:00,53.6,40.5,31.01,SW,223,0.0,0.0,61,0.00,,---,0.04,VWS V14.00,2013-03-29 06:47:00,
2013-03-28 23:52:00,53.6,40.9,31.01,SW,223,0.0,0.0,62,0.00,,---,0.04,VWS V14.00,2013-03-29 06:52:00,
2013-03-28 23:57:00,53.4,40.7,31.01,SW,223,0.0,0.0,62,0.00,,---,0.04,VWS V14.00,2013-03-29 06:57:00,